Date,TemperatureHighF,TemperatureAvgF,TemperatureLowF,DewpointHighF,DewpointAvgF,DewpointLowF,HumidityHigh,HumidityAvg,HumidityLow,PressureMaxIn,PressureMinIn,WindSpeedMaxMPH,WindSpeedAvgMPH,GustSpeedMaxMPH,PrecipitationSumIn
2013-1-1,25,19,11,5,1,-6,45,44,42,29.72,29.57,0,-999,0,0.00
2013-1-2,13,11,9,-4,-7,-8,45,45,45,29.63,29.60,0,-999,0,0.00
2013-1-4,42,36,31,19,14,10,41,40,39,29.72,29.63,0,-999,0,0.00
2013-1-5,43,35,29,19,14,9,43,41,39,29.66,29.45,0,-999,0,0.00
2013-1-6,39,29,22,16,8,3,45,42,39,29.75,29.54,0,-999,0,0.00
2013-1-7,50,35,22,25,13,3,43,40,37,29.69,29.45,0,-999,0,0.00
2013-1-8,54,42,31,28,18,10,41,39,36,29.57,29.39,0,-999,0,0.00
2013-1-9,55,41,28,29,19,10,53,41,36,29.78,29.57,0,-999,0,0.00
2013-1-10,53,45,39,50,33,18,92,64,38,29.75,29.16,0,-999,0,0.21
2013-1-11,60,55,49,49,34,27,93,47,35,29.19,29.04,0,-999,0,0.13
2013-1-12,55,34,24,29,13,4,49,41,36,29.48,29.13,0,-999,0,0.00
2013-1-13,26,20,10,6,1,-7,45,43,42,29.72,29.42,0,-999,0,0.00
2013-1-14,29,18,5,8,0,-12,45,43,41,29.87,29.75,0,-999,0,0.00
2013-1-15,28,14,6,7,-4,-11,47,44,41,29.78,29.54,0,-999,0,0.00
2013-1-16,41,25,12,18,5,-6,45,42,39,29.57,29.39,0,-999,0,0.00
2013-1-17,44,34,27,20,13,7,50,41,38,29.84,29.54,0,-999,0,0.00
2013-1-18,54,41,30,28,18,9,41,39,36,29.81,29.42,0,-999,0,0.00
2013-1-19,60,47,40,32,22,17,39,38,35,29.60,29.36,0,-999,0,0.00
2013-1-20,41,30,23,18,10,4,42,41,39,29.75,29.60,0,-999,0,0.00
2013-1-21,25,19,12,5,0,-5,45,43,42,29.78,29.72,0,-999,0,0.00
2013-1-22,32,21,13,10,2,-4,44,43,41,29.78,29.63,0,-999,0,0.00
2013-1-23,48,27,12,23,7,-5,45,42,37,29.75,29.51,0,-999,0,0.00
2013-1-24,29,22,12,8,3,-6,44,42,41,29.84,29.51,0,-999,0,0.00
2013-1-25,46,33,23,22,11,4,42,40,38,29.57,29.48,0,-999,0,0.00
2013-1-26,52,36,25,26,14,5,42,40,36,29.63,29.48,0,-999,0,0.00
2013-1-27,62,51,39,33,26,17,44,38,34,29.48,29.16,0,-999,0,0.12
2013-1-28,74,65,57,42,37,33,44,36,31,29.25,29.10,0,-999,0,0.00
2013-1-29,67,54,38,49,37,25,86,57,34,29.10,28.86,0,-999,0,1.62
2013-1-30,38,29,24,28,11,4,71,47,41,29.34,28.86,0,-999,0,0.25
2013-1-31,27,20,9,7,1,-8,44,43,42,29.81,29.31,0,-999,0,0.00
2013-2-1,28,18,6,7,-1,-12,45,43,41,29.81,29.51,0,-999,0,0.00
2013-2-2,46,35,25,22,13,5,42,40,38,29.54,29.39,0,-999,0,0.00
2013-2-3,48,39,33,22,16,12,41,39,37,29.60,29.22,0,-999,0,0.00
2013-2-4,49,39,24,24,16,5,43,39,37,29.34,29.16,0,-999,0,0.00
2013-2-5,58,37,21,31,15,3,53,41,35,29.45,29.25,0,-999,0,0.00
2013-2-6,63,45,25,34,21,6,52,38,34,29.45,29.25,0,-999,0,0.00
2013-2-7,50,45,34,43,26,13,82,48,37,29.51,29.22,0,-999,0,0.75
2013-2-8,38,33,29,15,12,9,44,41,39,29.69,29.51,0,-999,0,0.00
2013-2-9,49,37,28,24,16,10,50,42,37,29.60,29.16,0,-999,0,0.00
2013-2-10,57,47,37,37,25,15,67,43,35,29.25,28.83,0,-999,0,0.04
2013-2-11,49,38,28,24,15,8,42,40,37,29.45,29.25,0,-999,0,0.00
2013-2-12,41,32,22,18,11,4,51,42,39,29.48,29.31,0,-999,0,0.00
2013-2-13,55,39,27,28,17,8,45,39,36,29.31,29.13,0,-999,0,0.00
2013-2-14,52,42,32,26,18,11,42,39,36,29.45,29.16,0,-999,0,0.00
2013-2-15,39,32,25,16,10,5,42,41,39,29.66,29.45,0,-999,0,0.00
2013-2-16,37,29,19,15,9,0,43,41,39,29.63,29.39,0,-999,0,0.00
2013-2-17,60,44,28,33,20,7,41,38,35,29.39,29.04,0,-999,0,0.00
2013-2-18,56,44,28,34,21,8,48,39,35,29.36,28.86,0,-999,0,0.37
2013-2-19,36,27,18,14,7,0,43,42,40,29.66,29.36,0,-999,0,0.00
2013-2-20,28,22,16,7,2,-2,44,43,41,29.66,29.48,0,-999,0,0.00
2013-2-21,30,26,22,13,8,4,52,45,42,29.48,29.04,0,-999,0,0.00
2013-2-22,32,27,18,19,8,-1,64,45,41,29.36,29.07,0,-999,0,0.00
2013-2-23,36,23,9,14,4,-8,45,42,40,29.36,29.25,0,-999,0,0.08
2013-2-24,47,30,10,22,9,-7,45,41,37,29.31,29.19,0,-999,0,0.08
2013-2-25,40,34,28,26,14,8,73,44,39,29.28,28.89,0,-999,0,0.00
2013-2-26,33,33,33,29,25,17,86,74,52,28.89,28.74,0,-999,0,0.00
2013-2-27,35,33,30,13,12,9,42,41,40,29.28,29.10,0,-999,0,0.17
2013-2-28,34,31,28,13,10,7,42,41,40,29.42,29.28,0,-999,0,0.00
2013-3-1,32,29,27,11,9,7,43,42,41,29.51,29.39,0,-999,0,0.00
2013-3-2,39,28,23,16,7,4,43,41,39,29.57,29.45,0,-999,0,0.00
2013-3-3,46,34,20,21,12,1,44,40,38,29.45,29.07,0,-999,0,0.00
2013-3-4,51,40,34,25,17,13,40,39,37,29.22,28.95,0,-999,0,0.00
2013-3-5,37,33,30,21,13,9,59,42,40,29.57,29.19,0,-999,0,0.00
2013-3-6,36,29,23,14,8,4,43,41,40,29.66,29.54,0,-999,0,0.00
2013-3-7,51,36,21,25,14,2,44,40,37,29.57,29.36,0,-999,0,0.00
2013-3-8,56,43,31,29,20,10,45,39,35,29.48,29.28,0,-999,0,0.00
2013-3-9,63,50,42,43,28,21,85,45,34,29.31,28.92,0,-999,0,1.08
2013-3-10,55,46,32,54,30,11,96,57,39,29.13,28.83,0,-999,0,1.33
2013-3-11,37,32,29,15,11,8,43,41,40,29.25,29.07,0,-999,0,0.00
2013-3-12,48,36,26,23,14,7,43,40,37,29.57,29.28,0,-999,0,0.00
2013-3-13,47,35,24,22,13,4,42,40,37,29.72,29.57,0,-999,0,0.00
2013-3-14,71,50,32,40,24,11,41,37,32,29.60,29.31,0,-999,0,0.00